FALCON 9 DEB, 48610

Orbit data source: Space-Track

FALCON 9 DEB, 48610 is space debris in LEO originally from a launch on Sat, 15 May 2021 UTC launched from the Air Force Eastern Test Range (AFETR). Debris objects in space refer to the collection of defunct objects orbiting the Earth. Examples of debris include non-operational satellites, rocket bodies, and fragments generated from explosions, collisions, or faulty payload assembly.

Loading next visibility...
Identifier
48610, 2021-041BK
Orbit
LEO
Country
Flag of USUS
Related business
Manufacturer
SpaceX/Seattle
Mission
Spacecraft
Bus & Motor
Unknown
Mass
~100 kg wet, ~100 kg dry
Launch date (UTC)
2021-05-15 (5 years ago)
Launch vehicle
Unknown
Launch site
Air Force Eastern Test Range (AFETR)
Object type
Payload
Rocket body
Debris
Shape & HBR
Cyl, 3.5 m
Radar Cross Section
0.110 m², Medium (>0.1 m² and < 1m²)

Expand to show TLE details & history
Last TLE update: 22 hours ago

TLE from 22 hours ago
0 FALCON 9 DEB
1 48610U 21041BK  25348.85828343  .00003998  00000-0  23642-3 0  9999
2 48610  53.0214 192.2713 0009886 284.8410  75.1487 15.13618891251776
Epoch: 2025-12-14T20:35Z
TLE epoch observation values (Epoch: 2025-12-14T20:35:55.688Z)
Latitude
0.00003°
Longitude
159.52412°
Altitude
524.31 km
Speed
7.603 km/s
True Right ascension
12h 49m 05s
True Declination
0° 00' 00"
Sunlit
Object was in daylight at epoch
Visualization orbit readout
Latitude
Unknown
Longitude
Unknown
Altitude
Unknown
Speed
Unknown
Apparent Right ascension
Unknown
Apparent Declination
Unknown
Sunlit
N/A
Visualization observer readout
Local Sidereal Time
17:23:50
Azimuth
Unknown
Elevation
Unknown
Doppler factor
Unknown
Orbital elements
Apogee altitude
532.276 km
Perigee altitude
518.627 km
Semi-major axis
6,903.589 km
Eccentricity
0.00099
Inclination
53.0214°
RAAN
192.2713°
Arg. of periapsis
284.841°
True anomaly
75.25824°
Mean anomaly
75.1487°
Eccentric anomaly
75.20346°
Mean motion
3.78382 °/min
Orbital period
95.14 mins
BSTAR
0.00023642
Loading maneuver chart data...
Computing Atmospheric mass density...
Loading historical data...
Loading historical data...
Loading historical data...
Loading historical data...
Loading historical data...
Loading historical data...
Loading historical data...

Documentation

Showing up to 5 results
|